Dalhart, TX

1:20 AM CST on February 07, 2016 (GMT -0600)
Dalhart Municipal

Weather History for KDHT - May, 2014

Change the Weather History Date:

Saturday, May 17, 2014

  Actual Average Record
Temperature  
Mean Temperature 65 °F 64 °F  
Max Temperature 81 °F 79 °F 98 °F (2013)
Min Temperature 49 °F 49 °F 39 °F (1976)
Degree Days  
Heating Degree Days 0 3  
Month to date heating degree days 90 85  
Since 1 July heating degree days 4591 4687  
Cooling Degree Days 0 2  
Month to date cooling degree days 30 21  
Year to date cooling degree days 46 27  
Growing Degree Days 15 (Base 50)    
Moisture  
Dew Point 42 °F    
Average Humidity 42    
Maximum Humidity 61    
Minimum Humidity 23    
Precipitation  
Precipitation 0.15 in 0.08 in 1.46 in (1989)
Month to date precipitation 0.16 1.12  
Year to date precipitation 0.45 4.29  
Snow  
Snow 0.00 in 0.00 in 0.00 in ()
Month to date snowfall 0.0 0.1  
Since 1 July snowfall 17.4 19.0  
Snow Depth 0.00 in    
Sea Level Pressure  
Sea Level Pressure 29.96 in    
Wind  
Wind Speed 12 mph (SE)    
Max Wind Speed 24 mph    
Max Gust Speed 31 mph    
Visibility 9 miles    
Events Rain , Thunderstorm    
T = Trace of Precipitation, MM = Missing Value Source: NWS Daily Summary

Daily Weather History Graph

Daily Weather History Graph

Search for Another Location

Airport or City:

Trip Planner

Search our weather history database for the weather conditions in past years. The results will help you decide how hot, cold, wet, or windy it might be!

Date:

Astronomy

May. 17, 2014 Rise Set
Actual Time 6:42 AM CDT 8:50 PM CDT
Civil Twilight 6:14 AM CDT 9:19 PM CDT
Nautical Twilight 5:39 AM CDT 9:54 PM CDT
Astronomical Twilight 5:01 AM CDT 10:32 PM CDT
Moon 11:54 PM CDT (5/17) 9:27 AM CDT (5/17)
Length of Visible Light 15h 05m
Length of Day
14h 08m
Waning Gibbous, 89% of the Moon is Illuminated
May 17
Waning Gibbous
May 21
Last Quarter
May 28
New
Jun 5
First Quarter
Jun 12
Full

Hourly Weather History & Observations

Time (CDT) Temp. Dew Point Humidity Pressure Visibility Wind Dir Wind Speed Gust Speed Precip Events Conditions
12:53 AM 60.1 °F 37.9 °F 44% 29.98 in 10.0 mi NNE 17.3 mph - N/A   Clear
1:53 AM 59.0 °F 37.0 °F 44% 29.94 in 10.0 mi NE 13.8 mph - N/A   Overcast
2:53 AM 57.0 °F 37.0 °F 47% 29.94 in 10.0 mi NE 12.7 mph - N/A   Mostly Cloudy
3:53 AM 55.0 °F 37.0 °F 51% 29.95 in 10.0 mi North 6.9 mph - N/A   Clear
4:53 AM 52.0 °F 37.0 °F 57% 29.98 in 10.0 mi NNW 6.9 mph - N/A   Clear
5:53 AM 51.1 °F 37.0 °F 59% 29.98 in 10.0 mi NNW 9.2 mph - N/A   Clear
6:53 AM 50.0 °F 37.9 °F 63% 29.98 in 10.0 mi NNW 3.5 mph - N/A   Clear
7:53 AM 51.1 °F 37.9 °F 61% 30.01 in 10.0 mi NNW 5.8 mph - N/A   Clear
8:53 AM 57.9 °F 39.9 °F 51% 30.02 in 10.0 mi ENE 3.5 mph - N/A   Clear
9:53 AM 61.0 °F 41.0 °F 48% 30.02 in 10.0 mi SSE 9.2 mph - N/A   Clear
10:53 AM 64.0 °F 39.9 °F 41% 30.01 in 10.0 mi South 8.1 mph - N/A   Clear
11:53 AM 68.0 °F 39.9 °F 36% 29.99 in 10.0 mi SE 10.4 mph - N/A   Clear
12:53 PM 69.1 °F 39.9 °F 35% 29.97 in 10.0 mi SE 8.1 mph - N/A   Clear
1:53 PM 73.0 °F 39.0 °F 29% 29.93 in 10.0 mi South 10.4 mph 23.0 mph N/A   Clear
2:53 PM 75.2 °F 39.2 °F 27% 30.04 in 10.0 mi SSE 16.1 mph 23.0 mph N/A   Clear
3:53 PM 77.0 °F 39.0 °F 25% 29.88 in 10.0 mi South 15.0 mph 24.2 mph N/A   Clear
4:53 PM 79.0 °F 39.9 °F 25% 29.86 in 10.0 mi South 16.1 mph 24.2 mph N/A   Clear
5:53 PM 80.1 °F 39.0 °F 23% 29.84 in 10.0 mi SSE 17.3 mph 24.2 mph N/A   Clear
6:53 PM 78.1 °F 39.0 °F 25% 29.86 in 10.0 mi SSE 18.4 mph 24.2 mph N/A   Clear
7:41 PM 75.9 °F 39.9 °F 27% 30.01 in 10.0 mi SE 4.6 mph - N/A Thunderstorm Overcast
7:53 PM 70.0 °F 46.0 °F 42% 29.92 in 5.0 mi WNW 12.7 mph 31.1 mph 0.00 in Rain , Thunderstorm Light Thunderstorms and Rain
7:59 PM 69.1 °F 46.0 °F 44% 30.02 in 1.8 mi North 9.2 mph 20.7 mph 0.05 in Rain , Thunderstorm Thunderstorms and Rain
8:15 PM 64.9 °F 51.1 °F 61% 30.00 in 3.0 mi SSW 9.2 mph - 0.15 in Rain , Thunderstorm Light Thunderstorms and Rain
8:28 PM 66.0 °F 52.0 °F 60% 30.00 in 10.0 mi SSE 8.1 mph - 0.15 in Thunderstorm Mostly Cloudy
8:35 PM 68.0 °F 50.0 °F 52% 29.99 in 10.0 mi SSE 12.7 mph 21.9 mph 0.15 in   Scattered Clouds
8:53 PM 66.0 °F 50.0 °F 56% 29.90 in 10.0 mi SE 13.8 mph - 0.15 in   Partly Cloudy
9:53 PM 63.0 °F 48.0 °F 58% 29.92 in 10.0 mi SE 18.4 mph - N/A   Clear
10:53 PM 61.0 °F 46.0 °F 58% 29.94 in 10.0 mi SE 16.1 mph - N/A   Clear
11:53 PM 60.1 °F 46.0 °F 60% 29.94 in 10.0 mi SE 13.8 mph - N/A   Clear